Year,Month,Day,Hour,Minute,Value (Times are PST for temperature in C)
2007,07,10,00,00,18.90
2007,07,10,00,01,18.90
2007,07,10,00,02,19.00
2007,07,10,00,03,19.00
2007,07,10,00,04,19.00
2007,07,10,00,05,19.10
2007,07,10,00,06,19.00
2007,07,10,00,07,19.00
2007,07,10,00,08,18.90
2007,07,10,00,09,18.90
2007,07,10,00,10,18.80
2007,07,10,00,11,18.70
2007,07,10,00,12,18.60
2007,07,10,00,13,18.60
2007,07,10,00,14,18.60
2007,07,10,00,15,18.60
2007,07,10,00,16,18.80
2007,07,10,00,17,18.90
2007,07,10,00,18,19.00
2007,07,10,00,19,19.20
2007,07,10,00,20,19.30
2007,07,10,00,21,19.40
2007,07,10,00,22,19.50
2007,07,10,00,23,19.60
2007,07,10,00,24,19.80
2007,07,10,00,25,19.80
2007,07,10,00,26,19.90
2007,07,10,00,27,20.00
2007,07,10,00,28,20.00
2007,07,10,00,29,20.00
2007,07,10,00,30,20.00
2007,07,10,00,31,20.00
2007,07,10,00,32,20.00
2007,07,10,00,33,20.00
2007,07,10,00,34,20.00
2007,07,10,00,35,20.00
2007,07,10,00,36,20.00
2007,07,10,00,37,19.90
2007,07,10,00,38,19.90
2007,07,10,00,39,19.80
2007,07,10,00,40,19.70
2007,07,10,00,41,19.70
2007,07,10,00,42,19.60
2007,07,10,00,43,19.50
2007,07,10,00,44,19.40
2007,07,10,00,45,19.30
2007,07,10,00,46,19.20
2007,07,10,00,47,19.10
2007,07,10,00,48,19.10
2007,07,10,00,49,19.00
2007,07,10,00,50,18.90
2007,07,10,00,51,18.80
2007,07,10,00,52,18.80
2007,07,10,00,53,18.70
2007,07,10,00,54,18.70
2007,07,10,00,55,18.70
2007,07,10,00,56,18.60
2007,07,10,00,57,18.60
2007,07,10,00,58,18.70
2007,07,10,00,59,18.70
2007,07,10,01,00,18.70
2007,07,10,01,01,18.60
2007,07,10,01,02,18.60
2007,07,10,01,03,18.60
2007,07,10,01,04,18.60
2007,07,10,01,05,18.60
2007,07,10,01,06,18.60
2007,07,10,01,07,18.60
2007,07,10,01,08,18.60
2007,07,10,01,09,18.60
2007,07,10,01,10,18.50
2007,07,10,01,11,18.60
2007,07,10,01,12,18.60
2007,07,10,01,13,18.70
2007,07,10,01,14,18.70
2007,07,10,01,15,18.70
2007,07,10,01,16,18.70
2007,07,10,01,17,18.60
2007,07,10,01,18,18.60
2007,07,10,01,19,18.50
2007,07,10,01,20,18.40
2007,07,10,01,21,18.40
2007,07,10,01,22,18.40
2007,07,10,01,23,18.30
2007,07,10,01,24,18.30
2007,07,10,01,25,18.20
2007,07,10,01,26,18.20
2007,07,10,01,27,18.20
2007,07,10,01,28,18.10
2007,07,10,01,29,18.10
2007,07,10,01,30,18.20
2007,07,10,01,31,18.20
2007,07,10,01,32,18.10
2007,07,10,01,33,18.10
2007,07,10,01,34,18.10
2007,07,10,01,35,18.10
2007,07,10,01,36,18.10
2007,07,10,01,37,18.10
2007,07,10,01,38,18.10
2007,07,10,01,39,18.10
2007,07,10,01,40,18.10
2007,07,10,01,41,18.10
2007,07,10,01,42,18.00
2007,07,10,01,43,18.00
2007,07,10,01,44,17.90
2007,07,10,01,45,17.90
2007,07,10,01,46,17.80
2007,07,10,01,47,17.80
2007,07,10,01,48,17.90
2007,07,10,01,49,18.00
2007,07,10,01,50,18.10
2007,07,10,01,51,18.10
2007,07,10,01,52,18.20
2007,07,10,01,53,18.20
2007,07,10,01,54,18.20
2007,07,10,01,55,18.20
2007,07,10,01,56,18.30
2007,07,10,01,57,18.30
2007,07,10,01,58,18.30
2007,07,10,01,59,18.40
2007,07,10,02,00,18.40
2007,07,10,02,01,18.50
2007,07,10,02,02,18.50
2007,07,10,02,03,18.50
2007,07,10,02,04,18.60
2007,07,10,02,05,18.60
2007,07,10,02,06,18.70
2007,07,10,02,07,18.70
2007,07,10,02,08,18.80
2007,07,10,02,09,18.80
2007,07,10,02,10,18.80
2007,07,10,02,11,18.90
2007,07,10,02,12,19.00
2007,07,10,02,13,19.10
2007,07,10,02,14,19.20
2007,07,10,02,15,19.30
2007,07,10,02,16,19.50
2007,07,10,02,17,19.60
2007,07,10,02,18,19.60
2007,07,10,02,19,19.70
2007,07,10,02,20,19.80
2007,07,10,02,21,19.80
2007,07,10,02,22,19.90
2007,07,10,02,23,19.90
2007,07,10,02,24,20.00
2007,07,10,02,25,20.00
2007,07,10,02,26,20.10
2007,07,10,02,27,20.10
2007,07,10,02,28,20.20
2007,07,10,02,29,20.30
2007,07,10,02,30,20.30
2007,07,10,02,31,20.30
2007,07,10,02,32,20.30
2007,07,10,02,33,20.30
2007,07,10,02,34,20.20
2007,07,10,02,35,20.20
2007,07,10,02,36,20.20
2007,07,10,02,37,20.20
2007,07,10,02,38,20.10
2007,07,10,02,39,20.10
2007,07,10,02,40,20.10
2007,07,10,02,41,20.00
2007,07,10,02,42,20.00
2007,07,10,02,43,19.90
2007,07,10,02,44,19.90
2007,07,10,02,45,20.00
2007,07,10,02,46,20.00
2007,07,10,02,47,19.90
2007,07,10,02,48,19.90
2007,07,10,02,49,19.80
2007,07,10,02,50,19.70
2007,07,10,02,51,19.60
2007,07,10,02,52,19.60
2007,07,10,02,53,19.60
2007,07,10,02,54,19.60
2007,07,10,02,55,19.50
2007,07,10,02,56,19.50
2007,07,10,02,57,19.50
2007,07,10,02,58,19.40
2007,07,10,02,59,19.40
2007,07,10,03,00,19.40
2007,07,10,03,01,19.40
2007,07,10,03,02,19.40
2007,07,10,03,03,19.50
2007,07,10,03,04,19.50
2007,07,10,03,05,19.60
2007,07,10,03,06,19.50
2007,07,10,03,07,19.50
2007,07,10,03,08,19.40
2007,07,10,03,09,19.40
2007,07,10,03,10,19.40
2007,07,10,03,11,19.40
2007,07,10,03,12,19.40
2007,07,10,03,13,19.30
2007,07,10,03,14,19.30
2007,07,10,03,15,19.30
2007,07,10,03,16,19.30
2007,07,10,03,17,19.20
2007,07,10,03,18,19.10
2007,07,10,03,19,19.20
2007,07,10,03,20,19.10
2007,07,10,03,21,19.10
2007,07,10,03,22,19.00
2007,07,10,03,23,19.00
2007,07,10,03,24,18.90
2007,07,10,03,25,18.90
2007,07,10,03,26,18.90
2007,07,10,03,27,19.00
2007,07,10,03,28,19.10
2007,07,10,03,29,19.10
2007,07,10,03,30,19.10
2007,07,10,03,31,19.10
2007,07,10,03,32,19.10
2007,07,10,03,33,19.20
2007,07,10,03,34,19.20
2007,07,10,03,35,19.20
2007,07,10,03,36,19.10
2007,07,10,03,37,19.00
2007,07,10,03,38,18.90
2007,07,10,03,39,18.80
2007,07,10,03,40,18.70
2007,07,10,03,41,18.60
2007,07,10,03,42,18.60
2007,07,10,03,43,18.50
2007,07,10,03,44,18.50
2007,07,10,03,45,18.50
2007,07,10,03,46,18.40
2007,07,10,03,47,18.40
2007,07,10,03,48,18.40
2007,07,10,03,49,18.40
2007,07,10,03,50,18.30
2007,07,10,03,51,18.30
2007,07,10,03,52,18.20
2007,07,10,03,53,18.20
2007,07,10,03,54,18.20
2007,07,10,03,55,18.10
2007,07,10,03,56,18.10
2007,07,10,03,57,18.00
2007,07,10,03,58,18.00
2007,07,10,03,59,18.00
2007,07,10,04,00,17.90
2007,07,10,04,01,17.90
2007,07,10,04,02,18.00
2007,07,10,04,03,18.10
2007,07,10,04,04,18.10
2007,07,10,04,05,18.30
2007,07,10,04,06,18.40
2007,07,10,04,07,18.40
2007,07,10,04,08,18.40
2007,07,10,04,09,18.40
2007,07,10,04,10,18.40
2007,07,10,04,11,18.40
2007,07,10,04,12,18.40
2007,07,10,04,13,18.40
2007,07,10,04,14,18.50
2007,07,10,04,15,18.50
2007,07,10,04,16,18.60
2007,07,10,04,17,18.60
2007,07,10,04,18,18.60
2007,07,10,04,19,18.50
2007,07,10,04,20,18.40
2007,07,10,04,21,18.40
2007,07,10,04,22,18.40
2007,07,10,04,23,18.40
2007,07,10,04,24,18.50
2007,07,10,04,25,18.50
2007,07,10,04,26,18.60
2007,07,10,04,27,18.60
2007,07,10,04,28,18.70
2007,07,10,04,29,18.80
2007,07,10,04,30,18.80
2007,07,10,04,31,18.80
2007,07,10,04,32,18.90
2007,07,10,04,33,18.90
2007,07,10,04,34,18.90
2007,07,10,04,35,18.90
2007,07,10,04,36,18.90
2007,07,10,04,37,18.80
2007,07,10,04,38,18.80
2007,07,10,04,39,18.80
2007,07,10,04,40,18.90
2007,07,10,04,41,18.90
2007,07,10,04,42,18.80
2007,07,10,04,43,18.80
2007,07,10,04,44,18.70
2007,07,10,04,45,18.70
2007,07,10,04,46,18.70
2007,07,10,04,47,18.60
2007,07,10,04,48,18.60
2007,07,10,04,49,18.50
2007,07,10,04,50,18.40
2007,07,10,04,51,18.40
2007,07,10,04,52,18.30
2007,07,10,04,53,18.30
2007,07,10,04,54,18.30
2007,07,10,04,55,18.20
2007,07,10,04,56,18.20
2007,07,10,04,57,18.20
2007,07,10,04,58,18.10
2007,07,10,04,59,18.10
2007,07,10,05,00,18.10
2007,07,10,05,01,18.00
2007,07,10,05,02,18.00
2007,07,10,05,03,18.00
2007,07,10,05,04,18.10
2007,07,10,05,05,18.10
2007,07,10,05,06,18.00
2007,07,10,05,07,18.00
2007,07,10,05,08,18.10
2007,07,10,05,09,18.10
2007,07,10,05,10,18.10
2007,07,10,05,11,18.10
2007,07,10,05,12,18.00
2007,07,10,05,13,18.00
2007,07,10,05,14,18.10
2007,07,10,05,15,18.00
2007,07,10,05,16,18.00
2007,07,10,05,17,18.10
2007,07,10,05,18,18.10
2007,07,10,05,19,18.10
2007,07,10,05,20,18.10
2007,07,10,05,21,18.20
2007,07,10,05,22,18.20
2007,07,10,05,23,18.30
2007,07,10,05,24,18.40
2007,07,10,05,25,18.50
2007,07,10,05,26,18.50
2007,07,10,05,27,18.60
2007,07,10,05,28,18.60
2007,07,10,05,29,18.60
2007,07,10,05,30,18.60
2007,07,10,05,31,18.60
2007,07,10,05,32,18.50
2007,07,10,05,33,18.50
2007,07,10,05,34,18.60
2007,07,10,05,35,18.50
2007,07,10,05,36,18.50
2007,07,10,05,37,18.50
2007,07,10,05,38,18.40
2007,07,10,05,39,18.40
2007,07,10,05,40,18.40
2007,07,10,05,41,18.40
2007,07,10,05,42,18.30
2007,07,10,05,43,18.30
2007,07,10,05,44,18.20
2007,07,10,05,45,18.20
2007,07,10,05,46,18.20
2007,07,10,05,47,18.20
2007,07,10,05,48,18.20
2007,07,10,05,49,18.30
2007,07,10,05,50,18.30
2007,07,10,05,51,18.40
2007,07,10,05,52,18.40
2007,07,10,05,53,18.30
2007,07,10,05,54,18.30
2007,07,10,05,55,18.30
2007,07,10,05,56,18.20
2007,07,10,05,57,18.20
2007,07,10,05,58,18.20
2007,07,10,05,59,18.30
2007,07,10,06,00,18.30
2007,07,10,06,01,18.40
2007,07,10,06,02,18.40
2007,07,10,06,03,18.40
2007,07,10,06,04,18.40
2007,07,10,06,05,18.30
2007,07,10,06,06,18.30
2007,07,10,06,07,18.20
2007,07,10,06,08,18.20
2007,07,10,06,09,18.10
2007,07,10,06,10,18.10
2007,07,10,06,11,18.10
2007,07,10,06,12,18.10
2007,07,10,06,13,18.10
2007,07,10,06,14,18.20
2007,07,10,06,15,18.20
2007,07,10,06,16,18.20
2007,07,10,06,17,18.20
2007,07,10,06,18,18.20
2007,07,10,06,19,18.20
2007,07,10,06,20,18.10
2007,07,10,06,21,18.10
2007,07,10,06,22,18.10
2007,07,10,06,23,18.10
2007,07,10,06,24,18.10
2007,07,10,06,25,18.20
2007,07,10,06,26,18.20
2007,07,10,06,27,18.20
2007,07,10,06,28,18.30
2007,07,10,06,29,18.30
2007,07,10,06,30,18.40
2007,07,10,06,31,18.40
2007,07,10,06,32,18.40
2007,07,10,06,33,18.40
2007,07,10,06,34,18.30
2007,07,10,06,35,18.30
2007,07,10,06,36,18.30
2007,07,10,06,37,18.20
2007,07,10,06,38,18.20
2007,07,10,06,39,18.30
2007,07,10,06,40,18.30
2007,07,10,06,41,18.30
2007,07,10,06,42,18.30
2007,07,10,06,43,18.30
2007,07,10,06,44,18.40
2007,07,10,06,45,18.40
2007,07,10,06,46,18.50
2007,07,10,06,47,18.60
2007,07,10,06,48,18.60
2007,07,10,06,49,18.70
2007,07,10,06,50,18.70
2007,07,10,06,51,18.70
2007,07,10,06,52,18.80
2007,07,10,06,53,18.70
2007,07,10,06,54,18.80
2007,07,10,06,55,18.80
2007,07,10,06,56,18.80
2007,07,10,06,57,18.90
2007,07,10,06,58,18.90
2007,07,10,06,59,18.90
2007,07,10,07,00,18.80
2007,07,10,07,01,18.80
2007,07,10,07,02,18.80
2007,07,10,07,03,18.80
2007,07,10,07,04,18.80
2007,07,10,07,05,18.70
2007,07,10,07,06,18.70
2007,07,10,07,07,18.70
2007,07,10,07,08,18.70
2007,07,10,07,09,18.70
2007,07,10,07,10,18.70
2007,07,10,07,11,18.80
2007,07,10,07,12,18.80
2007,07,10,07,13,18.90
2007,07,10,07,14,18.90
2007,07,10,07,15,19.00
2007,07,10,07,16,19.00
2007,07,10,07,17,19.00
2007,07,10,07,18,19.00
2007,07,10,07,19,19.00
2007,07,10,07,20,19.00
2007,07,10,07,21,19.00
2007,07,10,07,22,19.00
2007,07,10,07,23,19.00
2007,07,10,07,24,19.00
2007,07,10,07,25,19.00
2007,07,10,07,26,19.00
2007,07,10,07,27,19.00
2007,07,10,07,28,19.00
2007,07,10,07,29,19.00
2007,07,10,07,30,19.00
2007,07,10,07,31,19.00
2007,07,10,07,32,19.00
2007,07,10,07,33,19.00
2007,07,10,07,34,19.10
2007,07,10,07,35,19.10
2007,07,10,07,36,19.10
2007,07,10,07,37,19.10
2007,07,10,07,38,19.10
2007,07,10,07,39,19.10
2007,07,10,07,40,19.10
2007,07,10,07,41,19.20
2007,07,10,07,42,19.20
2007,07,10,07,43,19.20
2007,07,10,07,44,19.20
2007,07,10,07,45,19.30
2007,07,10,07,46,19.30
2007,07,10,07,47,19.30
2007,07,10,07,48,19.30
2007,07,10,07,49,19.40
2007,07,10,07,50,19.40
2007,07,10,07,51,19.40
2007,07,10,07,52,19.40
2007,07,10,07,53,19.40
2007,07,10,07,54,19.50
2007,07,10,07,55,19.50
2007,07,10,07,56,19.50
2007,07,10,07,57,19.60
2007,07,10,07,58,19.60
2007,07,10,07,59,19.60
2007,07,10,08,00,19.60
2007,07,10,08,01,19.60
2007,07,10,08,02,19.60
2007,07,10,08,03,19.60
2007,07,10,08,04,19.60
2007,07,10,08,05,19.60
2007,07,10,08,06,19.70
2007,07,10,08,07,19.70
2007,07,10,08,08,19.70
2007,07,10,08,09,19.70
2007,07,10,08,10,19.60
2007,07,10,08,11,19.60
2007,07,10,08,12,19.60
2007,07,10,08,13,19.60
2007,07,10,08,14,19.70
2007,07,10,08,15,19.70
2007,07,10,08,16,19.70
2007,07,10,08,17,19.70
2007,07,10,08,18,19.80
2007,07,10,08,19,19.80
2007,07,10,08,20,19.90
2007,07,10,08,21,19.90
2007,07,10,08,22,19.90
2007,07,10,08,23,19.90
2007,07,10,08,24,19.90
2007,07,10,08,25,19.80
2007,07,10,08,26,19.80
2007,07,10,08,27,19.80
2007,07,10,08,28,19.90
2007,07,10,08,29,19.90
2007,07,10,08,30,19.80
2007,07,10,08,31,19.80
2007,07,10,08,32,19.80
2007,07,10,08,33,19.80
2007,07,10,08,34,19.80
2007,07,10,08,35,19.80
2007,07,10,08,36,19.90
2007,07,10,08,37,19.90
2007,07,10,08,38,20.00
2007,07,10,08,39,20.00
2007,07,10,08,40,20.10
2007,07,10,08,41,20.20
2007,07,10,08,42,20.20
2007,07,10,08,43,20.10
2007,07,10,08,44,20.10
2007,07,10,08,45,20.10
2007,07,10,08,46,20.00
2007,07,10,08,47,20.00
2007,07,10,08,48,19.90
2007,07,10,08,49,20.00
2007,07,10,08,50,20.00
2007,07,10,08,51,20.00
2007,07,10,08,52,20.00
2007,07,10,08,53,20.10
2007,07,10,08,54,20.10
2007,07,10,08,55,20.20
2007,07,10,08,56,20.20
2007,07,10,08,57,20.30
2007,07,10,08,58,20.30
2007,07,10,08,59,20.30
2007,07,10,09,00,20.40
2007,07,10,09,01,20.40
2007,07,10,09,02,20.40
2007,07,10,09,03,20.50
2007,07,10,09,04,20.50
2007,07,10,09,05,20.50
2007,07,10,09,06,20.40
2007,07,10,09,07,20.40
2007,07,10,09,08,20.40
2007,07,10,09,09,20.30
2007,07,10,09,10,20.30
2007,07,10,09,11,20.30
2007,07,10,09,12,20.30
2007,07,10,09,13,20.30
2007,07,10,09,14,20.40
2007,07,10,09,15,20.40
2007,07,10,09,16,20.50
2007,07,10,09,17,20.50
2007,07,10,09,18,20.50
2007,07,10,09,19,20.60
2007,07,10,09,20,20.60
2007,07,10,09,21,20.60
2007,07,10,09,22,20.60
2007,07,10,09,23,20.70
2007,07,10,09,24,20.70
2007,07,10,09,25,20.70
2007,07,10,09,26,20.80
2007,07,10,09,27,20.80
2007,07,10,09,28,20.80
2007,07,10,09,29,20.80
2007,07,10,09,30,20.80
2007,07,10,09,31,20.80
2007,07,10,09,32,20.90
2007,07,10,09,33,20.90
2007,07,10,09,34,20.90
2007,07,10,09,35,21.00
2007,07,10,09,36,21.00
2007,07,10,09,37,21.10
2007,07,10,09,38,21.20
2007,07,10,09,39,21.20
2007,07,10,09,40,21.30
2007,07,10,09,41,21.30
2007,07,10,09,42,21.30
2007,07,10,09,43,21.30
2007,07,10,09,44,21.30
2007,07,10,09,45,21.30
2007,07,10,09,46,21.40
2007,07,10,09,47,21.50
2007,07,10,09,48,21.50
2007,07,10,09,49,21.60
2007,07,10,09,50,21.70
2007,07,10,09,51,21.70
2007,07,10,09,52,21.60
2007,07,10,09,53,21.60
2007,07,10,09,54,21.50
2007,07,10,09,55,21.40
2007,07,10,09,56,21.40
2007,07,10,09,57,21.40
2007,07,10,09,58,21.40
2007,07,10,09,59,21.50
2007,07,10,10,00,21.60
2007,07,10,10,01,21.60
2007,07,10,10,02,21.60
2007,07,10,10,03,21.70
2007,07,10,10,04,21.70
2007,07,10,10,05,21.80
2007,07,10,10,06,21.70
2007,07,10,10,07,21.60
2007,07,10,10,08,21.50
2007,07,10,10,09,21.50
2007,07,10,10,10,21.50
2007,07,10,10,11,21.50
2007,07,10,10,12,21.40
2007,07,10,10,13,21.50
2007,07,10,10,14,21.50
2007,07,10,10,15,21.60
2007,07,10,10,16,21.70
2007,07,10,10,17,21.80
2007,07,10,10,18,21.90
2007,07,10,10,19,21.90
2007,07,10,10,20,21.90
2007,07,10,10,21,22.00
2007,07,10,10,22,22.00
2007,07,10,10,23,21.90
2007,07,10,10,24,21.80
2007,07,10,10,25,21.80
2007,07,10,10,26,21.80
2007,07,10,10,27,21.70
2007,07,10,10,28,21.60
2007,07,10,10,29,21.60
2007,07,10,10,30,21.50
2007,07,10,10,31,21.40
2007,07,10,10,32,21.30
2007,07,10,10,33,21.30
2007,07,10,10,34,21.40
2007,07,10,10,35,21.30
2007,07,10,10,36,21.30
2007,07,10,10,37,21.30
2007,07,10,10,38,21.20
2007,07,10,10,39,21.20
2007,07,10,10,40,21.20
2007,07,10,10,41,21.20
2007,07,10,10,42,21.30
2007,07,10,10,43,21.30
2007,07,10,10,44,21.40
2007,07,10,10,45,21.50
2007,07,10,10,46,21.50
2007,07,10,10,47,21.60
2007,07,10,10,48,21.60
2007,07,10,10,49,21.70
2007,07,10,10,50,21.70
2007,07,10,10,51,21.80
2007,07,10,10,52,21.80
2007,07,10,10,53,21.90
2007,07,10,10,54,22.00
2007,07,10,10,55,22.00
2007,07,10,10,56,22.00
2007,07,10,10,57,21.90
2007,07,10,10,58,21.80
2007,07,10,10,59,21.70
2007,07,10,11,00,21.60
2007,07,10,11,01,21.50
2007,07,10,11,02,21.40
2007,07,10,11,03,21.40
2007,07,10,11,04,21.40
2007,07,10,11,05,21.50
2007,07,10,11,06,21.60
2007,07,10,11,07,21.70
2007,07,10,11,08,21.70
2007,07,10,11,09,21.70
2007,07,10,11,10,21.70
2007,07,10,11,11,21.80
2007,07,10,11,12,21.80
2007,07,10,11,13,21.80
2007,07,10,11,14,21.90
2007,07,10,11,15,21.90
2007,07,10,11,16,22.00
2007,07,10,11,17,22.00
2007,07,10,11,18,22.10
2007,07,10,11,19,22.10
2007,07,10,11,20,22.20
2007,07,10,11,21,22.20
2007,07,10,11,22,22.20
2007,07,10,11,23,22.10
2007,07,10,11,24,22.00
2007,07,10,11,25,22.10
2007,07,10,11,26,22.00
2007,07,10,11,27,22.00
2007,07,10,11,28,22.00
2007,07,10,11,29,22.10
2007,07,10,11,30,22.10
2007,07,10,11,31,22.20
2007,07,10,11,32,22.30
2007,07,10,11,33,22.40
2007,07,10,11,34,22.50
2007,07,10,11,35,22.50
2007,07,10,11,36,22.50
2007,07,10,11,37,22.50
2007,07,10,11,38,22.50
2007,07,10,11,39,22.50
2007,07,10,11,40,22.60
2007,07,10,11,41,22.60
2007,07,10,11,42,22.60
2007,07,10,11,43,22.50
2007,07,10,11,44,22.50
2007,07,10,11,45,22.50
2007,07,10,11,46,22.60
2007,07,10,11,47,22.60
2007,07,10,11,48,22.70
2007,07,10,11,49,22.80
2007,07,10,11,50,22.80
2007,07,10,11,51,22.90
2007,07,10,11,52,22.90
2007,07,10,11,53,22.90
2007,07,10,11,54,22.90
2007,07,10,11,55,22.90
2007,07,10,11,56,22.90
2007,07,10,11,57,23.00
2007,07,10,11,58,23.10
2007,07,10,11,59,23.10
2007,07,10,12,00,23.10
2007,07,10,12,01,23.00
2007,07,10,12,02,23.00
2007,07,10,12,03,22.90
2007,07,10,12,04,22.90
2007,07,10,12,05,22.90
2007,07,10,12,06,22.80
2007,07,10,12,07,22.80
2007,07,10,12,08,22.80
2007,07,10,12,09,22.90
2007,07,10,12,10,22.90
2007,07,10,12,11,23.00
2007,07,10,12,12,23.10
2007,07,10,12,13,23.20
2007,07,10,12,14,23.30
2007,07,10,12,15,23.20
2007,07,10,12,16,23.30
2007,07,10,12,17,23.30
2007,07,10,12,18,23.30
2007,07,10,12,19,23.30
2007,07,10,12,20,23.20
2007,07,10,12,21,23.20
2007,07,10,12,22,23.20
2007,07,10,12,23,23.20
2007,07,10,12,24,23.30
2007,07,10,12,25,23.40
2007,07,10,12,26,23.50
2007,07,10,12,27,23.60
2007,07,10,12,28,23.70
2007,07,10,12,29,23.70
2007,07,10,12,30,23.60
2007,07,10,12,31,23.60
2007,07,10,12,32,23.60
2007,07,10,12,33,23.60
2007,07,10,12,34,23.60
2007,07,10,12,35,23.60
2007,07,10,12,36,23.70
2007,07,10,12,37,23.80
2007,07,10,12,38,23.90
2007,07,10,12,39,23.90
2007,07,10,12,40,23.90
2007,07,10,12,41,23.90
2007,07,10,12,42,24.00
2007,07,10,12,43,23.90
2007,07,10,12,44,23.90
2007,07,10,12,45,23.90
2007,07,10,12,46,24.00
2007,07,10,12,47,24.00
2007,07,10,12,48,24.10
2007,07,10,12,49,24.10
2007,07,10,12,50,24.00
2007,07,10,12,51,23.90
2007,07,10,12,52,23.90
2007,07,10,12,53,23.90
2007,07,10,12,54,23.90
2007,07,10,12,55,24.00
2007,07,10,12,56,24.10
2007,07,10,12,57,24.20
2007,07,10,12,58,24.20
2007,07,10,12,59,24.20
2007,07,10,13,00,24.20
2007,07,10,13,01,24.20
2007,07,10,13,02,24.20
2007,07,10,13,03,24.10
2007,07,10,13,04,24.20
2007,07,10,13,05,24.30
2007,07,10,13,06,24.50
2007,07,10,13,07,24.60
2007,07,10,13,08,24.70
2007,07,10,13,09,24.80
2007,07,10,13,10,24.80
2007,07,10,13,11,24.80
2007,07,10,13,12,24.70
2007,07,10,13,13,24.80
2007,07,10,13,14,24.90
2007,07,10,13,15,25.00
2007,07,10,13,16,25.10
2007,07,10,13,17,25.30
2007,07,10,13,18,25.40
2007,07,10,13,19,25.50
2007,07,10,13,20,25.50
2007,07,10,13,21,25.50
2007,07,10,13,22,25.40
2007,07,10,13,23,25.40
2007,07,10,13,24,25.40
2007,07,10,13,25,25.40
2007,07,10,13,26,25.50
2007,07,10,13,27,25.60
2007,07,10,13,28,25.80
2007,07,10,13,29,25.80
2007,07,10,13,30,25.80
2007,07,10,13,31,25.80
2007,07,10,13,32,25.80
2007,07,10,13,33,25.70
2007,07,10,13,34,25.60
2007,07,10,13,35,25.60
2007,07,10,13,36,25.70
2007,07,10,13,37,25.70
2007,07,10,13,38,25.80
2007,07,10,13,39,25.80
2007,07,10,13,40,25.70
2007,07,10,13,41,25.70
2007,07,10,13,42,25.80
2007,07,10,13,43,25.80
2007,07,10,13,44,25.80
2007,07,10,13,45,25.80
2007,07,10,13,46,25.80
2007,07,10,13,47,25.90
2007,07,10,13,48,25.90
2007,07,10,13,49,25.90
2007,07,10,13,50,25.90
2007,07,10,13,51,25.90
2007,07,10,13,52,25.80
2007,07,10,13,53,25.80
2007,07,10,13,54,25.80
2007,07,10,13,55,25.70
2007,07,10,13,56,25.70
2007,07,10,13,57,25.70
2007,07,10,13,58,25.80
2007,07,10,13,59,25.80
2007,07,10,14,00,25.90
2007,07,10,14,01,25.90
2007,07,10,14,02,25.90
2007,07,10,14,03,26.00
2007,07,10,14,04,26.10
2007,07,10,14,05,26.20
2007,07,10,14,06,26.30
2007,07,10,14,07,26.30
2007,07,10,14,08,26.30
2007,07,10,14,09,26.30
2007,07,10,14,10,26.30
2007,07,10,14,11,26.10
2007,07,10,14,12,26.00
2007,07,10,14,13,26.00
2007,07,10,14,14,26.10
2007,07,10,14,15,26.20
2007,07,10,14,16,26.10
2007,07,10,14,17,26.00
2007,07,10,14,18,26.00
2007,07,10,14,19,25.90
2007,07,10,14,20,25.90
2007,07,10,14,21,26.00
2007,07,10,14,22,26.10
2007,07,10,14,23,26.20
2007,07,10,14,24,26.20
2007,07,10,14,25,26.30
2007,07,10,14,26,26.30
2007,07,10,14,27,26.30
2007,07,10,14,28,26.30
2007,07,10,14,29,26.40
2007,07,10,14,30,26.40
2007,07,10,14,31,26.50
2007,07,10,14,32,26.60
2007,07,10,14,33,26.60
2007,07,10,14,34,26.70
2007,07,10,14,35,26.80
2007,07,10,14,36,26.80
2007,07,10,14,37,26.80
2007,07,10,14,38,26.80
2007,07,10,14,39,26.80
2007,07,10,14,40,26.70
2007,07,10,14,41,26.70
2007,07,10,14,42,26.50
2007,07,10,14,43,26.40
2007,07,10,14,44,26.40
2007,07,10,14,45,26.50
2007,07,10,14,46,26.50
2007,07,10,14,47,26.50
2007,07,10,14,48,26.60
2007,07,10,14,49,26.60
2007,07,10,14,50,26.70
2007,07,10,14,51,26.80
2007,07,10,14,52,26.80
2007,07,10,14,53,26.80
2007,07,10,14,54,26.70
2007,07,10,14,55,26.70
2007,07,10,14,56,26.70
2007,07,10,14,57,26.60
2007,07,10,14,58,26.60
2007,07,10,14,59,26.60
2007,07,10,15,00,26.70
2007,07,10,15,01,26.70
2007,07,10,15,02,26.70
2007,07,10,15,03,26.70
2007,07,10,15,04,26.80
2007,07,10,15,05,26.80
2007,07,10,15,06,26.80
2007,07,10,15,07,26.80
2007,07,10,15,08,26.80
2007,07,10,15,09,26.80
2007,07,10,15,10,26.80
2007,07,10,15,11,26.80
2007,07,10,15,12,26.80
2007,07,10,15,13,26.80
2007,07,10,15,14,26.70
2007,07,10,15,15,26.70
2007,07,10,15,16,26.70
2007,07,10,15,17,26.70
2007,07,10,15,18,26.70
2007,07,10,15,19,26.80
2007,07,10,15,20,26.80
2007,07,10,15,21,26.90
2007,07,10,15,22,26.90
2007,07,10,15,23,27.00
2007,07,10,15,24,27.10
2007,07,10,15,25,27.00
2007,07,10,15,26,27.00
2007,07,10,15,27,27.00
2007,07,10,15,28,27.00
2007,07,10,15,29,27.20
2007,07,10,15,30,27.30
2007,07,10,15,31,27.30
2007,07,10,15,32,27.40
2007,07,10,15,33,27.50
2007,07,10,15,34,27.60
2007,07,10,15,35,27.60
2007,07,10,15,36,27.60
2007,07,10,15,37,27.70
2007,07,10,15,38,27.70
2007,07,10,15,39,27.60
2007,07,10,15,40,27.50
2007,07,10,15,41,27.30
2007,07,10,15,42,27.30
2007,07,10,15,43,27.30
2007,07,10,15,44,27.30
2007,07,10,15,45,27.30
2007,07,10,15,46,27.30
2007,07,10,15,47,27.30
2007,07,10,15,48,27.30
2007,07,10,15,49,27.30
2007,07,10,15,50,27.40
2007,07,10,15,51,27.40
2007,07,10,15,52,27.50
2007,07,10,15,53,27.60
2007,07,10,15,54,27.70
2007,07,10,15,55,27.80
2007,07,10,15,56,28.00
2007,07,10,15,57,28.10
2007,07,10,15,58,28.20
2007,07,10,15,59,28.30
2007,07,10,16,00,28.30
2007,07,10,16,01,28.20
2007,07,10,16,02,28.20
2007,07,10,16,03,28.10
2007,07,10,16,04,28.10
2007,07,10,16,05,28.10
2007,07,10,16,06,28.10
2007,07,10,16,07,28.10
2007,07,10,16,08,28.10
2007,07,10,16,09,28.20
2007,07,10,16,10,28.20
2007,07,10,16,11,28.20
2007,07,10,16,12,28.20
2007,07,10,16,13,28.20
2007,07,10,16,14,28.20
2007,07,10,16,15,28.30
2007,07,10,16,16,28.50
2007,07,10,16,17,28.60
2007,07,10,16,18,28.70
2007,07,10,16,19,28.70
2007,07,10,16,20,28.60
2007,07,10,16,21,28.60
2007,07,10,16,22,28.60
2007,07,10,16,23,28.60
2007,07,10,16,24,28.60
2007,07,10,16,25,28.60
2007,07,10,16,26,28.60
2007,07,10,16,27,28.60
2007,07,10,16,28,28.70
2007,07,10,16,29,28.70
2007,07,10,16,30,28.80
2007,07,10,16,31,28.90
2007,07,10,16,32,29.00
2007,07,10,16,33,29.10
2007,07,10,16,34,29.20
2007,07,10,16,35,29.30
2007,07,10,16,36,29.40
2007,07,10,16,37,29.50
2007,07,10,16,38,29.60
2007,07,10,16,39,29.60
2007,07,10,16,40,29.50
2007,07,10,16,41,29.50
2007,07,10,16,42,29.50
2007,07,10,16,43,29.50
2007,07,10,16,44,29.50
2007,07,10,16,45,29.60
2007,07,10,16,46,29.60
2007,07,10,16,47,29.60
2007,07,10,16,48,29.60
2007,07,10,16,49,29.60
2007,07,10,16,50,29.60
2007,07,10,16,51,29.70
2007,07,10,16,52,29.70
2007,07,10,16,53,29.70
2007,07,10,16,54,29.70
2007,07,10,16,55,29.80
2007,07,10,16,56,29.80
2007,07,10,16,57,29.90
2007,07,10,16,58,30.00
2007,07,10,16,59,30.00
2007,07,10,17,00,30.10
2007,07,10,17,01,30.10
2007,07,10,17,02,30.00
2007,07,10,17,03,29.90
2007,07,10,17,04,29.80
2007,07,10,17,05,29.80
2007,07,10,17,06,29.90
2007,07,10,17,07,30.00
2007,07,10,17,08,30.10
2007,07,10,17,09,30.30
2007,07,10,17,10,30.30
2007,07,10,17,11,30.40
2007,07,10,17,12,30.40
2007,07,10,17,13,30.50
2007,07,10,17,14,30.60
2007,07,10,17,15,30.70
2007,07,10,17,16,30.70
2007,07,10,17,17,30.80
2007,07,10,17,18,30.90
2007,07,10,17,19,31.00